Starlink 36085

operational
NORAD ID: 67035 Int'l Des: 2025-294 Owner: SPXS Country: US Constellation: starlink
NOTLE

关于 Starlink 36085

正在加载描述...

实时位置

正在加载3D地球...

即将过境

高度历史

Altitude vs Time

uPlot chart will show altitude changes over time

两行轨道根数

1 67035C 25294F 25346.87756944 .01013200 00000+0 14690-2 0 3467
2 67035 43.0026 182.4971 0009154 284.2051 337.7138 16.03184300 10
Epoch: Dec 12, 2025 • Age: 54 hours

当前状态

高度 263.9 km
速度 7.75 km/s
星下点 -31.03°S, 136.25°W
发射日期 Dec 11, 2025
运行时间 2 days
类型 internet

技术详情

分类 Payload
质量 575.00 kg
干质量 530.00 kg
总质量 575.00 kg
长度 0.30 m
直径 4.10 m
跨度 29.00 m
形状 Box + pan
制造商 SPXS
平台类型 Starlink V2MO
阶段状态 In Orbit
所有者/国家 SPXS/US

大型星座

Loading constellations...